Weather in Lazne Libverda

Czech Republic     50°53′25″N   15°12′20″E
temp.,
°C
wind,
m/s
gust,
m/s
humid.,
%
clouds,
%
prec.,
mm/h
press.,
hPa
HPBL,
m
23 june, wed
wed2323:00+16n2498100 0.3 1016297
02:00+15nne129976 0.5 101799
05:00+15ne129993 0.0 1017103
08:00+16ne229293 0.1 1018361
11:00+17nne2386100 0.1 1019566
14:00+19ne238469 1.1 1019660
17:00+18ene1188100 0.4 101969
20:00+17n239280 0.5 1019108
24 june, thu
thu2423:00+16ene118968 0.0 102033
02:00+15nne1192100 0.0 101917
05:00+14ne2595100 0.3 1017183
08:00+15ene369799 2.1 1017321
11:00+13wnw3599100 0.9 1018391
14:00+13w3597100 1.0 1019449
17:00+16nw248784 0.1 1018589
20:00+14nne2297100 0.1 1017271
25 june, fri
fri2523:00+14nne249984 0.4 1016216
02:00+14n1499100 0.9 1015271
05:00+14w2499100 0.4 1015322
08:00+14wnw2499100 1.9 1016327
11:00+13wnw3599100 4.2 1016396
14:00+13wnw3598100 14.5 1017303
17:00+13wsw3598100 1.3 1017295
20:00+13sw249692 1.4 1016145
26 june, sat
sat2623:00+14ssw2294100 0.0 101833
02:00+12sw229485 0.1 101740
05:00+12sw229785 0.3 101841
08:00+15wnw349387 0.3 1019417
11:00+18nnw237856 0.8 1019872
14:00+21nnw236029 1.9 10181465
17:00+22nnw235286 0.2 10181728
20:00+19nnw116796 0.2 101711
27 june, sun
sun2723:00+15s228121 0.0 101913
02:00+14s228010 0.0 101913
05:00+13s217969 0.0 101812
08:00+19ne00688 0.0 1018218
11:00+22ne235469 0.0 10181246
14:00+24ne3353100 0.0 10171342
17:00+23ene455763 0.0 10161036
20:00+20e48745 0.0 1016281